EW7277 Weather Reports


Display with metric or nautical units.
time (UTC)temp
F
wind
direction
speed
MPH
gust
MPH
rain 1hr
in
rain 24hr
in
rain mn
in
humidity
%
barometer
mb
20191212232506 30 90 1.0 4.0 0.00 0.00 0.00 96 994.7
20191212232006 30 0 0.0 0.0 0.00 0.00 0.00 96 994.7
20191212231506 30 0 0.0 0.0 0.00 0.00 0.00 96 994.7
20191212231006 30 0 0.0 0.0 0.00 0.00 0.00 96 994.8
20191212230506 30 0 0.0 0.0 0.00 0.00 0.00 96 995.0
20191212230008 30 0 0.0 0.0 0.00 0.00 0.00 96 995.2
20191212225506 30 0 0.0 0.0 0.00 0.00 0.00 96 995.3
20191212225006 30 0 0.0 0.0 0.00 0.00 0.00 96 995.4
20191212224506 30 0 0.0 0.0 0.00 0.00 0.00 96 995.7
20191212224006 30 0 0.0 0.0 0.00 0.00 0.00 96 995.8
20191212223505 30 0 0.0 0.0 0.00 0.00 0.00 96 995.8
20191212223006 31 0 0.0 0.0 0.00 0.00 0.00 96 995.9
20191212222506 31 0 0.0 0.0 0.00 0.00 0.00 96 996.1
20191212222007 31 77 0.0 2.0 0.00 0.00 0.00 96 996.4
20191212221506 31 76 1.0 5.0 0.00 0.00 0.00 96 996.5
20191212221006 31 76 1.0 5.0 0.00 0.00 0.00 96 996.6
20191212220506 31 0 0.0 0.0 0.00 0.00 0.00 96 996.6
20191212220006 31 0 0.0 0.0 0.00 0.00 0.00 96 996.8
20191212215506 31 0 0.0 0.0 0.00 0.00 0.00 96 996.8
20191212215006 31 0 0.0 0.0 0.00 0.00 0.00 96 997.0
20191212214505 31 0 0.0 0.0 0.00 0.00 0.00 96 997.0
20191212214006 31 0 0.0 0.0 0.00 0.00 0.00 96 997.1
20191212213506 31 0 0.0 0.0 0.00 0.00 0.00 96 997.2
20191212213006 31 0 0.0 0.0 0.00 0.00 0.00 96 997.3
20191212212506 31 0 0.0 0.0 0.00 0.00 0.00 96 997.3
20191212212006 31 0 0.0 0.0 0.00 0.00 0.00 96 997.5
20191212211506 31 0 0.0 0.0 0.00 0.00 0.00 96 997.6
20191212211006 31 0 0.0 0.0 0.00 0.00 0.00 96 997.7
20191212210506 31 0 0.0 0.0 0.00 0.00 0.00 96 997.7
20191212210006 31 0 0.0 0.0 0.00 0.00 0.00 96 997.8
20191212205506 31 76 1.0 3.0 0.00 0.00 0.00 96 997.9
20191212205006 31 76 1.0 3.0 0.00 0.00 0.00 96 998.0
20191212204506 31 0 0.0 0.0 0.00 0.00 0.00 96 998.1
20191212204005 31 0 0.0 0.0 0.00 0.00 0.00 96 998.2
20191212203506 31 0 0.0 0.0 0.00 0.00 0.00 96 998.3
20191212203006 31 0 0.0 0.0 0.00 0.00 0.00 96 998.3
20191212202506 31 0 0.0 0.0 0.00 0.00 0.00 96 998.4
20191212202006 31 0 0.0 0.0 0.00 0.00 0.00 96 998.5
20191212201506 31 0 0.0 0.0 0.00 0.00 0.00 96 998.6
20191212201006 31 75 0.0 1.0 0.00 0.00 0.00 96 998.8
20191212200505 31 76 1.0 3.0 0.00 0.00 0.00 96 998.8
20191212200006 31 76 2.0 4.0 0.00 0.00 0.00 96 998.8
20191212195506 31 79 3.0 4.0 0.00 0.00 0.00 96 998.8
20191212195006 31 83 1.0 4.0 0.00 0.00 0.00 96 998.9
20191212194506 31 0 0.0 0.0 0.00 0.00 0.00 96 999.0
20191212194006 31 0 0.0 0.0 0.00 0.00 0.00 96 999.0
20191212193506 31 0 0.0 0.0 0.00 0.00 0.00 96 999.0
20191212193006 31 0 0.0 0.0 0.00 0.00 0.00 96 999.0
20191212192506 31 0 0.0 0.0 0.00 0.00 0.00 96 999.1
20191212192006 31 0 0.0 0.0 0.00 0.00 0.00 96 999.2
20191212191506 31 0 0.0 0.0 0.00 0.00 0.00 96 999.2
20191212191006 31 0 0.0 0.0 0.00 0.00 0.00 96 999.2
20191212190506 31 0 0.0 0.0 0.00 0.00 0.00 96 999.3
20191212190006 31 0 0.0 0.0 0.00 0.00 0.00 96 999.5
20191212185506 31 0 0.0 0.0 0.00 0.00 0.00 96 999.5
20191212185006 31 0 0.0 0.0 0.00 0.00 0.00 96 999.7
20191212184506 31 0 0.0 0.0 0.00 0.00 0.00 96 999.7
20191212184006 31 0 0.0 0.0 0.00 0.00 0.00 96 999.8
20191212183505 31 0 0.0 0.0 0.00 0.00 0.00 96 999.8
20191212183006 31 0 0.0 0.0 0.00 0.00 0.00 96 999.9
20191212182506 31 0 0.0 0.0 0.00 0.00 0.00 96 1000.0
20191212182006 31 0 0.0 0.0 0.00 0.00 0.00 96 1000.1
20191212181506 31 0 0.0 0.0 0.00 0.00 0.00 95 1000.1
20191212181006 31 0 0.0 0.0 0.00 0.00 0.00 95 1000.3
20191212180506 31 0 0.0 0.0 0.00 0.00 0.00 95 1000.3
20191212180006 31 0 0.0 0.0 0.00 0.00 0.00 96 1000.3
20191212175505 31 0 0.0 0.0 0.00 0.00 0.00 96 1000.2
20191212175006 31 0 0.0 0.0 0.00 0.00 0.00 96 1000.3
20191212174506 31 0 0.0 0.0 0.00 0.00 0.00 95 1000.3
20191212174006 31 0 0.0 0.0 0.00 0.00 0.00 95 1000.4
20191212173506 31 0 0.0 0.0 0.00 0.00 0.00 95 1000.4
20191212173007 31 0 0.0 0.0 0.00 0.00 0.00 95 1000.4
20191212172506 31 88 0.0 2.0 0.00 0.00 0.00 95 1000.5
20191212172006 31 88 1.0 2.0 0.00 0.00 0.00 95 1000.5
20191212171506 31 88 1.0 2.0 0.00 0.00 0.00 95 1000.6
20191212171006 31 88 1.0 2.0 0.00 0.00 0.00 95 1000.6
20191212170505 31 88 2.0 3.0 0.00 0.00 0.00 95 1000.7
20191212170006 31 89 2.0 4.0 0.00 0.00 0.00 95 1000.9
20191212165506 31 89 3.0 4.0 0.00 0.00 0.00 95 1000.9
20191212165006 31 90 2.0 3.0 0.00 0.00 0.00 95 1001.0
20191212164506 31 90 2.0 3.0 0.00 0.00 0.00 95 1001.0
20191212164006 31 90 2.0 4.0 0.00 0.00 0.00 95 1001.0
20191212163506 31 90 3.0 4.0 0.00 0.00 0.00 95 1001.0
20191212163005 31 90 2.0 4.0 0.00 0.00 0.00 95 1001.1
20191212162506 31 90 2.0 3.0 0.00 0.00 0.00 95 1001.1
20191212162006 31 90 2.0 3.0 0.00 0.00 0.00 94 1001.2
20191212161505 31 90 1.0 3.0 0.00 0.00 0.00 94 1001.3
20191212161011 31 90 1.0 3.0 0.00 0.00 0.00 95 1001.3
20191212160505 31 90 1.0 3.0 0.00 0.00 0.00 95 1001.4
20191212160006 31 90 2.0 3.0 0.00 0.00 0.00 95 1001.5
20191212155507 31 90 2.0 3.0 0.00 0.00 0.00 94 1001.5
20191212155006 31 90 2.0 2.0 0.00 0.00 0.00 94 1001.5
20191212154506 31 90 1.0 2.0 0.00 0.00 0.00 94 1001.5
20191212154005 31 90 2.0 3.0 0.00 0.00 0.00 94 1001.7
20191212153506 31 90 2.0 3.0 0.00 0.00 0.00 94 1001.7
20191212153005 31 90 2.0 3.0 0.00 0.00 0.00 94 1001.7
20191212152506 31 90 1.0 2.0 0.00 0.00 0.00 94 1001.8
20191212152005 31 90 2.0 3.0 0.00 0.00 0.00 94 1001.8
20191212151506 31 90 2.0 3.0 0.00 0.00 0.00 94 1001.8
20191212151005 31 90 2.0 3.0 0.00 0.00 0.00 94 1001.7
20191212150506 31 90 2.0 4.0 0.00 0.00 0.00 94 1001.7
20191212150006 31 90 3.0 4.0 0.00 0.00 0.00 94 1001.7
20191212145505 31 90 3.0 4.0 0.00 0.00 0.00 94 1001.8
20191212145006 31 85 3.0 4.0 0.00 0.00 0.00 94 1001.8
20191212144505 31 79 3.0 4.0 0.00 0.00 0.00 93 1001.8
20191212144006 31 78 3.0 4.0 0.00 0.00 0.00 93 1001.8
20191212143505 31 78 3.0 4.0 0.00 0.01 0.00 93 1001.8
20191212143006 32 78 3.0 4.0 0.00 0.01 0.00 93 1001.8
20191212142506 32 78 3.0 4.0 0.00 0.01 0.00 93 1001.8
20191212142006 32 81 3.0 5.0 0.00 0.01 0.00 93 1001.8
20191212141505 32 80 4.0 5.0 0.00 0.01 0.00 93 1001.8
20191212141006 32 71 3.0 5.0 0.00 0.01 0.00 93 1001.9
20191212140506 32 65 3.0 5.0 0.00 0.01 0.00 93 1001.8
20191212140006 32 68 3.0 5.0 0.00 0.01 0.00 93 1001.8
20191212135506 32 71 3.0 4.0 0.00 0.01 0.00 92 1001.8
20191212135006 32 72 3.0 4.0 0.00 0.01 0.00 92 1001.8
20191212134507 32 72 3.0 4.0 0.00 0.01 0.00 92 1002.0
20191212134006 32 72 1.0 4.0 0.00 0.01 0.00 92 1001.9
20191212133505 32 0 0.0 0.0 0.00 0.01 0.00 92 1001.9
20191212133006 32 0 0.0 0.0 0.00 0.01 0.00 92 1001.9
20191212132505 32 0 0.0 0.0 0.00 0.01 0.00 92 1002.0
20191212132006 32 0 0.0 0.0 0.00 0.01 0.00 92 1002.1
20191212131505 32 0 0.0 0.0 0.00 0.01 0.00 92 1002.1
20191212131006 32 0 0.0 0.0 0.00 0.01 0.00 92 1002.1
20191212130505 32 0 0.0 0.0 0.00 0.01 0.00 92 1002.1
20191212130006 32 0 0.0 0.0 0.00 0.01 0.00 92 1002.2
20191212125505 32 0 0.0 0.0 0.00 0.01 0.00 92 1002.3
20191212125006 32 0 0.0 0.0 0.00 0.01 0.00 92 1002.3
20191212124506 32 0 0.0 0.0 0.00 0.01 0.00 92 1002.4
20191212124006 32 0 0.0 0.0 0.00 0.01 0.00 92 1002.4
20191212123506 32 0 0.0 0.0 0.00 0.01 0.00 92 1002.5
20191212123005 32 73 0.0 1.0 0.00 0.01 0.00 92 1002.6
20191212122506 32 73 0.0 2.0 0.00 0.01 0.00 92 1002.6
20191212122005 31 73 0.0 2.0 0.00 0.01 0.00 92 1002.7
20191212121506 31 73 1.0 3.0 0.00 0.01 0.00 92 1002.7
20191212121005 31 72 2.0 4.0 0.00 0.01 0.00 92 1002.7
20191212120506 31 69 4.0 5.0 0.00 0.01 0.00 92 1002.7
20191212120005 31 67 4.0 5.0 0.00 0.01 0.00 92 1002.8
20191212115506 31 67 2.0 4.0 0.00 0.01 0.00 91 1002.9
20191212115005 31 67 1.0 3.0 0.00 0.01 0.00 91 1002.9
20191212114505 31 0 0.0 0.0 0.00 0.01 0.00 91 1002.9
20191212114006 31 0 0.0 0.0 0.00 0.01 0.00 91 1003.0
20191212113505 31 0 0.0 0.0 0.00 0.01 0.00 91 1003.0
20191212113006 31 0 0.0 0.0 0.00 0.01 0.00 91 1002.9
20191212112505 31 0 0.0 0.0 0.00 0.01 0.00 92 1003.0
20191212112006 31 0 0.0 0.0 0.00 0.01 0.00 92 1003.0
20191212111505 31 0 0.0 0.0 0.00 0.01 0.00 92 1003.2
20191212111006 31 0 0.0 0.0 0.00 0.01 0.00 92 1003.1
20191212110506 31 0 0.0 0.0 0.00 0.01 0.00 92 1003.2
20191212110006 31 0 0.0 0.0 0.00 0.01 0.00 92 1003.3
20191212105506 31 0 0.0 0.0 0.00 0.01 0.00 92 1003.4
20191212105005 30 0 0.0 0.0 0.00 0.01 0.00 92 1003.4
20191212104506 30 68 0.0 2.0 0.00 0.01 0.00 92 1003.4
20191212104005 30 67 1.0 3.0 0.00 0.01 0.00 92 1003.5
20191212103506 30 67 2.0 3.0 0.00 0.01 0.00 92 1003.6
20191212103005 30 68 2.0 4.0 0.00 0.01 0.00 92 1003.6
20191212102505 30 68 2.0 4.0 0.00 0.01 0.00 92 1003.6
20191212102005 30 62 2.0 4.0 0.00 0.01 0.00 92 1003.6
20191212101506 30 57 1.0 4.0 0.00 0.01 0.00 92 1003.5
20191212101006 30 0 0.0 0.0 0.00 0.01 0.00 92 1003.6
20191212100505 30 0 0.0 0.0 0.00 0.01 0.00 92 1003.5
20191212100006 30 0 0.0 0.0 0.00 0.01 0.00 92 1003.6
20191212095505 30 0 0.0 0.0 0.00 0.01 0.00 92 1003.6
20191212095006 30 0 0.0 0.0 0.00 0.01 0.00 92 1003.6
20191212094505 30 0 0.0 0.0 0.00 0.01 0.00 92 1003.6
20191212094006 30 0 0.0 0.0 0.00 0.01 0.00 92 1003.7
20191212093505 30 0 0.0 0.0 0.00 0.01 0.00 92 1003.8
20191212093006 30 0 0.0 0.0 0.00 0.01 0.00 92 1003.8
20191212092506 30 0 0.0 0.0 0.00 0.01 0.00 92 1003.8
20191212092006 30 0 0.0 0.0 0.00 0.01 0.00 92 1003.8
20191212091513 30 0 0.0 0.0 0.00 0.01 0.00 92 1003.9
20191212091006 30 0 0.0 0.0 0.00 0.01 0.00 92 1003.9
20191212090506 30 0 0.0 0.0 0.00 0.01 0.00 93 1003.9
20191212090005 30 0 0.0 0.0 0.00 0.01 0.00 93 1003.9
20191212085506 30 0 0.0 0.0 0.00 0.01 0.00 93 1004.0
20191212085005 29 0 0.0 0.0 0.00 0.01 0.00 93 1004.0
20191212084505 29 0 0.0 0.0 0.00 0.01 0.00 93 1004.0
20191212084005 29 0 0.0 0.0 0.00 0.01 0.00 93 1004.0
20191212083505 29 0 0.0 0.0 0.00 0.01 0.00 93 1003.9
20191212083006 29 0 0.0 0.0 0.00 0.01 0.00 93 1003.8
20191212082505 29 0 0.0 0.0 0.00 0.01 0.00 93 1003.8
20191212082005 29 0 0.0 0.0 0.00 0.01 0.00 93 1003.8
20191212081506 29 0 0.0 0.0 0.00 0.01 0.00 93 1003.7
20191212081006 29 0 0.0 0.0 0.00 0.01 0.00 93 1003.7
20191212080505 29 0 0.0 0.0 0.00 0.01 0.00 93 1003.7
20191212080006 29 0 0.0 0.0 0.00 0.01 0.00 93 1003.6
20191212075505 29 0 0.0 0.0 0.00 0.01 0.00 93 1003.6
20191212075006 29 0 0.0 0.0 0.00 0.01 0.00 93 1003.5
20191212074505 29 0 0.0 0.0 0.00 0.01 0.00 93 1003.5
20191212074006 29 0 0.0 0.0 0.00 0.01 0.00 93 1003.4
20191212073505 29 0 0.0 0.0 0.00 0.01 0.00 93 1003.4
20191212073006 29 0 0.0 0.0 0.00 0.01 0.00 93 1003.3
20191212072506 29 0 0.0 0.0 0.00 0.01 0.00 93 1003.3
20191212072005 29 0 0.0 0.0 0.00 0.01 0.00 93 1003.4
20191212071506 29 0 0.0 0.0 0.00 0.01 0.00 93 1003.3
20191212071006 29 0 0.0 0.0 0.00 0.01 0.00 93 1003.4
20191212070505 29 0 0.0 0.0 0.00 0.01 0.00 93 1003.4
20191212070006 29 0 0.0 0.0 0.00 0.01 0.00 93 1003.5
20191212065505 29 0 0.0 0.0 0.00 0.01 0.00 93 1003.4
20191212065005 29 0 0.0 0.0 0.00 0.01 0.00 93 1003.4
20191212064506 29 0 0.0 0.0 0.00 0.01 0.00 93 1003.3
20191212064005 29 0 0.0 0.0 0.00 0.01 0.00 93 1003.3
20191212063506 29 0 0.0 0.0 0.00 0.01 0.00 93 1003.3
20191212063005 29 0 0.0 0.0 0.00 0.01 0.00 93 1003.4
20191212062506 29 0 0.0 0.0 0.00 0.01 0.00 93 1003.4
20191212062006 29 0 0.0 0.0 0.00 0.01 0.00 93 1003.3
20191212061505 29 0 0.0 0.0 0.00 0.01 0.00 93 1003.2
20191212061006 29 0 0.0 0.0 0.00 0.01 0.00 93 1003.2
20191212060505 29 0 0.0 0.0 0.00 0.01 0.00 94 1003.2
20191212060006 29 0 0.0 0.0 0.00 0.01 0.00 94 1003.2
20191212055505 29 0 0.0 0.0 0.00 0.01 0.00 94 1003.2
20191212055006 29 0 0.0 0.0 0.00 0.01 0.00 94 1003.2
20191212054505 29 0 0.0 0.0 0.00 0.01 0.00 94 1003.2
20191212054005 29 0 0.0 0.0 0.00 0.01 0.00 94 1003.1
20191212053505 29 0 0.0 0.0 0.00 0.01 0.00 94 1003.1
20191212053005 29 0 0.0 0.0 0.00 0.01 0.00 94 1003.1
20191212052506 29 0 0.0 0.0 0.00 0.01 0.00 94 1003.1
20191212052005 29 0 0.0 0.0 0.00 0.01 0.00 94 1003.0
20191212051506 29 18 0.0 3.0 0.00 0.01 0.00 94 1003.0
20191212051005 29 32 0.0 3.0 0.00 0.01 0.00 94 1003.0
20191212050506 29 67 0.0 3.0 0.00 0.01 0.00 94 1003.0
20191212050006 29 0 0.0 0.0 0.00 0.01 0.00 94 1002.9
20191212045505 29 0 0.0 0.0 0.00 0.01 0.00 94 1002.8
20191212045005 29 0 0.0 0.0 0.00 0.01 0.00 94 1002.8
20191212044505 29 0 0.0 0.0 0.00 0.01 0.00 94 1002.9
20191212044005 29 0 0.0 0.0 0.00 0.01 0.00 94 1002.8
20191212043507 29 0 0.0 0.0 0.00 0.01 0.00 95 1002.8
20191212043006 29 100 0.0 2.0 0.00 0.01 0.00 95 1002.8
20191212042506 29 102 1.0 3.0 0.00 0.01 0.00 95 1002.8
20191212042005 29 102 1.0 3.0 0.00 0.01 0.00 95 1002.9
20191212041505 29 103 0.0 3.0 0.00 0.01 0.00 95 1002.8
20191212041006 29 0 0.0 0.0 0.00 0.01 0.00 95 1002.8
20191212040505 29 0 0.0 0.0 0.00 0.01 0.00 95 1002.9
20191212040006 28 103 0.0 1.0 0.00 0.01 0.00 95 1002.8
20191212035505 28 104 0.0 2.0 0.00 0.01 0.00 95 1002.8
20191212035006 28 103 1.0 3.0 0.00 0.01 0.00 95 1002.8
20191212034505 28 102 1.0 3.0 0.00 0.01 0.00 95 1002.9
20191212034006 28 93 0.0 3.0 0.00 0.01 0.00 95 1002.8
20191212033506 28 0 0.0 0.0 0.00 0.01 0.00 95 1002.9
20191212033006 28 0 0.0 0.0 0.00 0.01 0.00 95 1003.1
20191212032505 28 0 0.0 0.0 0.00 0.01 0.00 95 1003.1
20191212032006 28 0 0.0 0.0 0.00 0.01 0.00 95 1003.1
20191212031505 28 0 0.0 0.0 0.00 0.01 0.00 95 1003.2
20191212031006 28 0 0.0 0.0 0.00 0.01 0.00 95 1003.1
20191212030505 28 0 0.0 0.0 0.00 0.01 0.00 95 1003.1
20191212030005 28 0 0.0 0.0 0.00 0.01 0.00 95 1003.2
20191212025505 28 0 0.0 0.0 0.00 0.01 0.00 95 1003.3
20191212025005 28 0 0.0 0.0 0.00 0.01 0.00 95 1003.4
20191212024506 28 0 0.0 0.0 0.00 0.01 0.00 95 1003.4
20191212024005 28 0 0.0 0.0 0.00 0.01 0.00 95 1003.5
20191212023506 28 0 0.0 0.0 0.00 0.01 0.00 95 1003.5
20191212023005 28 0 0.0 0.0 0.00 0.01 0.00 95 1003.6
20191212022506 28 58 0.0 2.0 0.00 0.01 0.00 95 1003.7
20191212022005 28 57 1.0 2.0 0.00 0.01 0.00 95 1003.7
20191212021506 28 58 2.0 3.0 0.00 0.01 0.00 95 1003.8
20191212021005 28 58 1.0 3.0 0.00 0.01 0.00 95 1003.8
20191212020506 28 57 0.0 3.0 0.00 0.01 0.00 95 1003.8
20191212020005 28 0 0.0 0.0 0.00 0.01 0.00 95 1003.9
20191212015506 28 0 0.0 0.0 0.00 0.01 0.00 95 1003.9
20191212015005 28 0 0.0 0.0 0.00 0.01 0.00 95 1003.9
20191212014505 29 0 0.0 0.0 0.00 0.01 0.00 95 1003.9
20191212014005 29 0 0.0 0.0 0.00 0.01 0.00 95 1003.9
20191212013505 29 0 0.0 0.0 0.00 0.01 0.00 95 1004.0
20191212013006 29 0 0.0 0.0 0.00 0.01 0.00 95 1004.0
20191212012505 29 0 0.0 0.0 0.00 0.01 0.00 95 1004.0
20191212012005 29 0 0.0 0.0 0.00 0.01 0.00 95 1004.0
20191212011505 28 0 0.0 0.0 0.00 0.01 0.00 96 1004.0
20191212011006 28 0 0.0 0.0 0.00 0.01 0.00 96 1004.0
20191212010505 28 0 0.0 0.0 0.00 0.01 0.00 96 1004.1
20191212010006 28 0 0.0 0.0 0.00 0.01 0.00 96 1004.1
20191212005505 28 0 0.0 0.0 0.00 0.01 0.00 96 1004.1
20191212005006 28 0 0.0 0.0 0.00 0.01 0.00 95 1004.2
20191212004505 28 58 0.0 2.0 0.00 0.01 0.00 95 1004.2
20191212004006 28 57 1.0 3.0 0.00 0.01 0.00 95 1004.2
20191212003505 28 58 1.0 3.0 0.00 0.01 0.00 95 1004.2
20191212003006 28 57 0.0 3.0 0.00 0.01 0.00 95 1004.3
20191212002505 28 0 0.0 0.0 0.00 0.01 0.00 95 1004.3
20191212002006 28 57 0.0 2.0 0.00 0.01 0.00 95 1004.3
20191212001505 28 58 1.0 3.0 0.00 0.01 0.00 95 1004.4
20191212001005 28 57 2.0 3.0 0.00 0.01 0.00 95 1004.4
20191212000505 28 58 2.0 4.0 0.00 0.01 0.00 95 1004.5
20191212000005 28 59 1.0 4.0 0.00 0.01 0.00 95 1004.6
20191211235505 28 0 0.0 0.0 0.00 0.01 0.00 95 1004.7
20191211235005 28 0 0.0 0.0 0.00 0.01 0.00 95 1004.8
20191211234505 28 0 0.0 0.0 0.00 0.01 0.00 95 1004.8
20191211234005 28 0 0.0 0.0 0.00 0.01 0.00 95 1004.9
20191211233505 28 0 0.0 0.0 0.00 0.01 0.00 95 1004.9
20191211233006 28 0 0.0 0.0 0.00 0.01 0.00 95 1005.0